Location: Newark
(44.1667°N, 8.2500°E)
Time: 11:07:33
(UTC+00:00)

S-56A Canister/Altair - Pass Details

Date: 11 December 2019
Orbit: 634 x 2498 km, 38.9° (Epoch: 22 January)

Event Time Altitude Azimuth Distance (km) Brightness Sun altitude
Rises 15:37:29 0° 285° (WNW) 6,127 12.8 0.8°
Reaches altitude 10° 15:42:17 10° 276° (W) 4,993 12.6 0.1°
Maximum altitude 15:53:32 31° 223° (SW) 3,072 11.6 -1.6°
Drops below altitude 10° 16:02:16 10° 166° (SSE) 3,817 11.3 -3.0°
Sets 16:05:24 0° 156° (SSE) 4,534 11.5 -3.5°
